This is the latest recevied weather packets stored in our database for station/object KB4JHU-15. If no packets are shown the sender has not sent any weather packets the latest 10 day(s).
| Time | Temp. | Humidity | Pressure | Rain* | Wind** | Luminosity | Snow |
|---|---|---|---|---|---|---|---|
| 1778207920 | 12.78° C | 84% | - | 0 mm | - | - | - |
| 1778206120 | 13.33° C | 80% | - | 0 mm | - | - | - |
| 1778204319 | 14.44° C | 73% | - | 0 mm | - | - | - |
| 1778202517 | 16.11° C | 65% | - | 0 mm | - | - | - |
| 1778200717 | 17.78° C | 58% | - | 0 mm | - | - | - |
| 1778198915 | 19.44° C | 51% | - | 0 mm | - | - | - |
| 1778197114 | 19.44° C | 49% | - | 0 mm | - | - | - |
| 1778195313 | 19.44° C | 48% | - | 0 mm | - | - | - |
| 1778193512 | 19.44° C | 48% | - | 0 mm | - | - | - |
| 1778191711 | 18.89° C | 48% | - | 0 mm | - | - | - |
| 1778189910 | 20° C | 45% | - | 0 mm | - | - | - |
| 1778188109 | 19.44° C | 48% | - | 0 mm | - | - | - |
| 1778186308 | 20° C | 50% | - | 0 mm | - | - | - |
| 1778184507 | 19.44° C | 53% | - | 0 mm | - | - | - |
| 1778182706 | 18.89° C | 52% | - | 0 mm | - | - | - |
| 1778180905 | 19.44° C | 53% | - | 0 mm | - | - | - |
| 1778179104 | 18.89° C | 61% | - | 0 mm | - | - | - |
| 1778177303 | 17.78° C | 60% | - | 0 mm | - | - | - |
| 1778175502 | 18.33° C | 60% | - | 0 mm | - | - | - |
| 1778173701 | 17.78° C | 57% | - | 0 mm | - | - | - |
| 1778171900 | 17.22° C | 59% | - | 0 mm | - | - | - |
| 1778170099 | 16.11° C | 66% | - | 0 mm | - | - | - |
| 1778168298 | 15.56° C | 69% | - | 0 mm | - | - | - |
| 1778166497 | 15° C | 74% | - | 0 mm | - | - | - |
| 1778164696 | 13.89° C | 81% | - | 0 mm | - | - | - |
* Rain latest hour (hover to see other rain measurements)
** Current wind speed in m/s (hover to see current wind gust speed)